Back to catalog

CAS-2T

CZ-11 R/B

AliveAmateur RadioSSO
NORAD 41847·PAYLOAD·🇨🇳 China

Launched Nov 9, 2016 from Jiuquan Satellite Launch Center

Loading…

Next Passes (next 24 hours)

TLE

FreshSource: AMSAT

Epoch: Sep 14, 2026, 05:34 UTC

1 41847U 16066G   26257.23211286  .00000860  00000-0  13003-3 0  9994
2 41847  98.3755 331.9432 0340498 219.1767 138.4327 14.44840123517652

Track CAS-2T in real time with AllMySat

Download on the App Store